Time,TemperatureF,DewpointF,PressureIn,WindDirection,WindDirectionDegrees,WindSpeedMPH,WindSpeedGustMPH,Humidity,HourlyPrecipIn,Conditions,Clouds,dailyrainin,SoftwareType,DateUTC
2013-02-02 00:00:00,0.3,-6.9,30.06,NNE,22,0.0,0.0,71,0.00,CLR,,0.00,WeatherDisplay:10.37,2013-02-02 06:00:00,
2013-02-02 00:05:00,0.3,-6.9,30.06,NNE,22,0.0,0.0,71,0.00,CLR,,0.00,WeatherDisplay:10.37,2013-02-02 06:05:00,
2013-02-02 00:10:00,0.3,-6.9,30.07,NNE,27,0.0,0.0,71,0.00,CLR,,0.00,WeatherDisplay:10.37,2013-02-02 06:10:00,
2013-02-02 00:15:00,0.5,-6.7,30.07,NE,39,0.0,0.0,71,0.00,CLR,,0.00,WeatherDisplay:10.37,2013-02-02 06:15:00,
2013-02-02 00:20:00,0.4,-6.8,30.07,NNE,32,0.0,0.0,71,0.00,CLR,,0.00,WeatherDisplay:10.37,2013-02-02 06:20:00,
2013-02-02 00:25:00,0.5,-6.7,30.07,NNE,22,0.0,0.0,71,0.00,CLR,,0.00,WeatherDisplay:10.37,2013-02-02 06:25:00,
2013-02-02 00:30:00,0.5,-6.7,30.07,NNE,22,0.0,0.0,71,0.00,CLR,,0.00,WeatherDisplay:10.37,2013-02-02 06:30:00,
2013-02-02 00:35:00,0.5,-6.7,30.07,NNE,22,0.0,0.0,71,0.00,CLR,,0.00,WeatherDisplay:10.37,2013-02-02 06:35:00,
2013-02-02 00:40:00,0.5,-6.7,30.07,NNE,22,0.0,0.0,71,0.00,CLR,,0.00,WeatherDisplay:10.37,2013-02-02 06:40:00,
2013-02-02 00:45:00,0.5,-6.7,30.07,NNE,29,0.0,0.0,71,0.00,CLR,,0.00,WeatherDisplay:10.37,2013-02-02 06:45:00,
2013-02-02 00:50:00,0.5,-6.7,30.07,NNE,32,0.0,0.0,71,0.00,CLR,,0.00,WeatherDisplay:10.37,2013-02-02 06:50:00,
2013-02-02 00:55:00,0.5,-6.7,30.07,NNE,25,0.0,0.0,71,0.00,CLR,,0.00,WeatherDisplay:10.37,2013-02-02 06:55:00,
2013-02-02 01:00:00,0.7,-6.5,30.07,NNE,22,0.0,0.0,71,0.00,CLR,,0.00,WeatherDisplay:10.37,2013-02-02 07:00:00,
2013-02-02 01:05:00,0.7,-6.5,30.07,NNE,22,0.0,0.0,71,0.00,CLR,,0.00,WeatherDisplay:10.37,2013-02-02 07:05:00,
2013-02-02 01:10:00,0.5,-6.7,30.07,NNE,22,0.0,0.0,71,0.00,CLR,,0.00,WeatherDisplay:10.37,2013-02-02 07:10:00,
2013-02-02 01:20:00,0.5,-6.7,30.07,NNE,22,0.0,0.0,71,0.00,CLR,,0.00,WeatherDisplay:10.37,2013-02-02 07:20:00,
2013-02-02 01:25:00,0.5,-6.7,30.08,NNE,22,0.0,0.0,71,0.00,CLR,,0.00,WeatherDisplay:10.37,2013-02-02 07:25:00,
2013-02-02 01:30:00,0.5,-6.7,30.08,NNE,12,0.0,0.0,71,0.00,CLR,,0.00,WeatherDisplay:10.37,2013-02-02 07:30:00,
2013-02-02 01:35:00,0.5,-6.7,30.08,NNE,14,0.0,0.0,71,0.00,CLR,,0.00,WeatherDisplay:10.37,2013-02-02 07:35:00,
2013-02-02 01:40:00,0.5,-6.7,30.07,NNE,22,0.0,0.0,71,0.00,CLR,,0.00,WeatherDisplay:10.37,2013-02-02 07:40:00,
2013-02-02 01:45:00,0.5,-6.7,30.08,NNE,16,0.0,0.0,71,0.00,CLR,,0.00,WeatherDisplay:10.37,2013-02-02 07:45:00,
2013-02-02 01:50:00,0.5,-6.7,30.08,NNE,14,0.0,0.0,71,0.00,CLR,,0.00,WeatherDisplay:10.37,2013-02-02 07:50:00,
2013-02-02 01:55:00,0.5,-6.7,30.08,NNE,20,0.0,0.0,71,0.00,CLR,,0.00,WeatherDisplay:10.37,2013-02-02 07:55:00,
2013-02-02 02:00:00,0.5,-6.7,30.08,NNE,22,0.0,0.0,71,0.00,CLR,,0.00,WeatherDisplay:10.37,2013-02-02 08:00:00,
2013-02-02 02:10:00,0.5,-6.7,30.08,NNE,22,0.0,0.0,71,0.00,CLR,,0.00,WeatherDisplay:10.37,2013-02-02 08:10:00,
2013-02-02 02:15:00,0.5,-6.7,30.08,NNE,22,0.0,0.0,71,0.00,CLR,,0.00,WeatherDisplay:10.37,2013-02-02 08:15:00,
2013-02-02 02:20:00,0.5,-6.7,30.08,NNE,17,0.0,0.0,71,0.00,CLR,,0.00,WeatherDisplay:10.37,2013-02-02 08:20:00,
2013-02-02 02:25:00,0.5,-6.7,30.09,NNE,18,0.0,0.0,71,0.00,CLR,,0.00,WeatherDisplay:10.37,2013-02-02 08:25:00,
2013-02-02 02:30:00,0.5,-6.7,30.09,NNE,22,0.0,0.0,71,0.00,CLR,,0.00,WeatherDisplay:10.37,2013-02-02 08:30:00,
2013-02-02 02:35:00,0.5,-6.7,30.08,NNE,22,0.0,0.0,71,0.00,CLR,,0.00,WeatherDisplay:10.37,2013-02-02 08:35:00,
2013-02-02 02:40:00,0.5,-6.7,30.09,NNE,17,0.0,0.0,71,0.00,CLR,,0.00,WeatherDisplay:10.37,2013-02-02 08:40:00,
2013-02-02 02:45:00,0.5,-6.7,30.09,NNE,23,0.0,0.0,71,0.00,CLR,,0.00,WeatherDisplay:10.37,2013-02-02 08:45:00,
2013-02-02 02:50:00,0.5,-6.7,30.09,NNE,26,0.0,0.0,71,0.00,CLR,,0.00,WeatherDisplay:10.37,2013-02-02 08:50:00,
2013-02-02 02:55:00,0.5,-6.7,30.09,NNE,22,0.0,0.0,71,0.00,CLR,,0.00,WeatherDisplay:10.37,2013-02-02 08:55:00,
2013-02-02 03:00:00,0.5,-6.7,30.09,North,11,0.0,0.0,71,0.00,CLR,,0.00,WeatherDisplay:10.37,2013-02-02 09:00:00,
2013-02-02 03:05:00,0.6,-6.6,30.10,NNE,13,0.0,0.0,71,0.00,CLR,,0.00,WeatherDisplay:10.37,2013-02-02 09:05:00,
2013-02-02 03:10:00,0.5,-6.7,30.10,NNE,22,0.0,0.0,71,0.00,CLR,,0.00,WeatherDisplay:10.37,2013-02-02 09:10:00,
2013-02-02 03:15:00,0.5,-6.7,30.09,NNE,18,0.0,0.0,71,0.00,CLR,,0.00,WeatherDisplay:10.37,2013-02-02 09:15:00,
2013-02-02 03:20:00,0.4,-6.8,30.09,NNE,18,0.0,0.0,71,0.00,CLR,,0.00,WeatherDisplay:10.37,2013-02-02 09:20:00,
2013-02-02 03:25:00,0.4,-6.8,30.10,NNE,17,0.0,0.0,71,0.00,CLR,,0.00,WeatherDisplay:10.37,2013-02-02 09:25:00,
2013-02-02 03:30:00,0.3,-6.9,30.10,NNE,25,0.0,0.0,71,0.00,CLR,,0.00,WeatherDisplay:10.37,2013-02-02 09:30:00,
2013-02-02 03:35:00,0.3,-6.9,30.10,NNE,19,0.0,0.0,71,0.00,CLR,,0.00,WeatherDisplay:10.37,2013-02-02 09:35:00,
2013-02-02 03:40:00,0.3,-6.9,30.10,NNE,15,0.0,0.0,71,0.00,CLR,,0.00,WeatherDisplay:10.37,2013-02-02 09:40:00,
2013-02-02 03:45:00,0.3,-6.9,30.10,NNE,22,0.0,0.0,71,0.00,CLR,,0.00,WeatherDisplay:10.37,2013-02-02 09:45:00,
2013-02-02 03:50:00,0.3,-6.9,30.10,NNE,20,0.0,0.0,71,0.00,CLR,,0.00,WeatherDisplay:10.37,2013-02-02 09:50:00,
2013-02-02 03:55:00,0.1,-7.0,30.11,NNE,20,5.0,11.0,71,0.00,CLR,,0.00,WeatherDisplay:10.37,2013-02-02 09:55:00,
2013-02-02 04:00:00,0.3,-6.9,30.10,NNE,19,0.0,11.0,71,0.00,CLR,,0.00,WeatherDisplay:10.37,2013-02-02 10:00:00,
2013-02-02 04:05:00,0.1,-7.0,30.11,NNE,12,7.0,7.0,71,0.00,CLR,,0.00,WeatherDisplay:10.37,2013-02-02 10:05:00,
2013-02-02 04:10:00,0.1,-7.0,30.11,North,11,0.0,3.0,71,0.00,CLR,,0.00,WeatherDisplay:10.37,2013-02-02 10:10:00,
2013-02-02 04:15:00,0.1,-7.0,30.11,North,7,0.0,6.0,71,0.00,CLR,,0.00,WeatherDisplay:10.37,2013-02-02 10:15:00,
2013-02-02 04:20:00,0.1,-7.0,30.11,North,5,0.0,7.0,71,0.00,CLR,,0.00,WeatherDisplay:10.37,2013-02-02 10:20:00,
2013-02-02 04:25:00,0.1,-7.0,30.11,North,7,2.0,5.0,71,0.00,CLR,,0.00,WeatherDisplay:10.37,2013-02-02 10:25:00,
2013-02-02 04:30:00,0.1,-7.0,30.12,NNE,19,0.0,5.0,71,0.00,CLR,,0.00,WeatherDisplay:10.37,2013-02-02 10:30:00,
2013-02-02 04:35:00,0.1,-7.0,30.11,NNE,24,1.0,7.0,71,0.00,CLR,,0.00,WeatherDisplay:10.37,2013-02-02 10:35:00,
2013-02-02 04:40:00,0.1,-7.0,30.12,NNE,18,6.0,9.0,71,0.00,CLR,,0.00,WeatherDisplay:10.37,2013-02-02 10:40:00,
2013-02-02 04:45:00,0.0,-7.2,30.12,NNE,20,0.0,9.0,71,0.00,CLR,,0.00,WeatherDisplay:10.37,2013-02-02 10:45:00,
2013-02-02 04:50:00,0.0,-7.2,30.12,NNE,24,0.0,0.0,71,0.00,CLR,,0.00,WeatherDisplay:10.37,2013-02-02 10:50:00,
2013-02-02 04:55:00,0.1,-7.0,30.12,NNE,16,2.0,5.0,71,0.00,CLR,,0.00,WeatherDisplay:10.37,2013-02-02 10:55:00,
2013-02-02 05:00:00,0.0,-7.2,30.13,NNE,18,2.0,5.0,71,0.00,CLR,,0.00,WeatherDisplay:10.37,2013-02-02 11:00:00,
2013-02-02 05:05:00,0.0,-7.2,30.13,NNE,27,1.0,7.0,71,0.00,CLR,,0.00,WeatherDisplay:10.37,2013-02-02 11:05:00,
2013-02-02 05:10:00,0.0,-7.2,30.13,NNE,21,0.0,7.0,71,0.00,CLR,,0.00,WeatherDisplay:10.37,2013-02-02 11:10:00,
2013-02-02 05:15:00,0.0,-7.2,30.13,NNE,12,0.0,0.0,71,0.00,CLR,,0.00,WeatherDisplay:10.37,2013-02-02 11:15:00,
2013-02-02 05:20:00,0.0,-7.2,30.13,NNE,13,0.0,0.0,71,0.00,CLR,,0.00,WeatherDisplay:10.37,2013-02-02 11:20:00,
2013-02-02 05:25:00,0.0,-7.2,30.13,NNE,13,0.0,0.0,71,0.00,CLR,,0.00,WeatherDisplay:10.37,2013-02-02 11:25:00,
2013-02-02 05:30:00,0.0,-7.2,30.13,North,358,3.0,4.0,71,0.00,CLR,,0.00,WeatherDisplay:10.37,2013-02-02 11:30:00,
2013-02-02 05:35:00,-0.2,-7.4,30.13,NNE,16,0.0,0.0,71,0.00,CLR,,0.00,WeatherDisplay:10.37,2013-02-02 11:35:00,
2013-02-02 05:40:00,-0.2,-7.4,30.13,NNE,18,0.0,0.0,71,0.00,CLR,,0.00,WeatherDisplay:10.37,2013-02-02 11:40:00,
2013-02-02 05:45:00,-0.2,-7.4,30.13,NNE,18,2.0,3.0,71,0.00,CLR,,0.00,WeatherDisplay:10.37,2013-02-02 11:45:00,
2013-02-02 05:50:00,-0.2,-7.4,30.13,NNE,22,2.0,7.0,71,0.00,CLR,,0.00,WeatherDisplay:10.37,2013-02-02 11:50:00,
2013-02-02 05:55:00,-0.6,-7.7,30.14,NNE,15,0.0,7.0,71,0.00,CLR,,0.00,WeatherDisplay:10.37,2013-02-02 11:55:00,
2013-02-02 06:00:00,-0.6,-7.7,30.14,NNE,21,0.0,0.0,71,0.00,CLR,,0.00,WeatherDisplay:10.37,2013-02-02 12:00:00,
2013-02-02 06:05:00,-0.7,-7.9,30.14,NE,38,0.0,0.0,71,0.00,CLR,,0.00,WeatherDisplay:10.37,2013-02-02 12:05:00,
2013-02-02 06:10:00,-0.8,-8.2,30.15,NNE,16,0.0,0.0,70,0.00,CLR,,0.00,WeatherDisplay:10.37,2013-02-02 12:10:00,
2013-02-02 06:15:00,-1.1,-8.6,30.15,North,0,0.0,0.0,70,0.00,CLR,,0.00,WeatherDisplay:10.37,2013-02-02 12:15:00,
2013-02-02 06:20:00,-1.5,-8.9,30.15,North,0,0.0,0.0,70,0.00,CLR,,0.00,WeatherDisplay:10.37,2013-02-02 12:20:00,
2013-02-02 06:25:00,-1.7,-8.8,30.15,North,0,0.0,0.0,71,0.00,CLR,,0.00,WeatherDisplay:10.37,2013-02-02 12:25:00,
2013-02-02 06:30:00,-2.0,-9.1,30.15,North,0,0.0,0.0,71,0.00,CLR,,0.00,WeatherDisplay:10.37,2013-02-02 12:30:00,
2013-02-02 06:35:00,-2.4,-9.5,30.15,North,0,0.0,0.0,71,0.00,CLR,,0.00,WeatherDisplay:10.37,2013-02-02 12:35:00,
2013-02-02 06:40:00,-2.9,-10.0,30.15,North,0,0.0,0.0,71,0.00,CLR,,0.00,WeatherDisplay:10.37,2013-02-02 12:40:00,
2013-02-02 06:45:00,-3.1,-10.2,30.15,North,0,0.0,0.0,71,0.00,CLR,,0.00,WeatherDisplay:10.37,2013-02-02 12:45:00,
2013-02-02 06:50:00,-3.7,-10.8,30.15,North,0,0.0,0.0,71,0.00,CLR,,0.00,WeatherDisplay:10.37,2013-02-02 12:50:00,
2013-02-02 06:55:00,-4.3,-11.4,30.15,North,0,0.0,0.0,71,0.00,CLR,,0.00,WeatherDisplay:10.37,2013-02-02 12:55:00,
2013-02-02 07:00:00,-4.7,-11.7,30.15,North,0,0.0,0.0,71,0.00,CLR,,0.00,WeatherDisplay:10.37,2013-02-02 13:00:00,
2013-02-02 07:05:00,-5.3,-12.3,30.15,North,0,0.0,0.0,71,0.00,CLR,,0.00,WeatherDisplay:10.37,2013-02-02 13:05:00,
2013-02-02 07:10:00,-5.5,-12.5,30.15,North,0,0.0,0.0,71,0.00,CLR,,0.00,WeatherDisplay:10.37,2013-02-02 13:10:00,
2013-02-02 07:15:00,-6.0,-12.9,30.15,North,0,0.0,0.0,71,0.00,CLR,,0.00,WeatherDisplay:10.37,2013-02-02 13:15:00,
2013-02-02 07:20:00,-6.2,-13.2,30.15,North,0,0.0,0.0,71,0.00,CLR,,0.00,WeatherDisplay:10.37,2013-02-02 13:20:00,
2013-02-02 07:25:00,-6.7,-13.6,30.15,North,0,0.0,0.0,71,0.00,CLR,,0.00,WeatherDisplay:10.37,2013-02-02 13:25:00,
2013-02-02 07:30:00,-6.9,-13.8,30.15,North,0,0.0,0.0,71,0.00,CLR,,0.00,WeatherDisplay:10.37,2013-02-02 13:30:00,
2013-02-02 07:35:00,-7.2,-14.1,30.15,North,0,0.0,0.0,71,0.00,CLR,,0.00,WeatherDisplay:10.37,2013-02-02 13:35:00,
2013-02-02 07:40:00,-7.4,-14.3,30.15,North,0,0.0,0.0,71,0.00,CLR,,0.00,WeatherDisplay:10.37,2013-02-02 13:40:00,
2013-02-02 07:45:00,-7.8,-14.7,30.15,North,0,0.0,0.0,71,0.00,CLR,,0.00,WeatherDisplay:10.37,2013-02-02 13:45:00,
2013-02-02 07:50:00,-7.9,-14.8,30.15,North,0,0.0,0.0,71,0.00,CLR,,0.00,WeatherDisplay:10.37,2013-02-02 13:50:00,
2013-02-02 07:55:00,-8.0,-14.9,30.15,North,0,0.0,0.0,71,0.00,CLR,,0.00,WeatherDisplay:10.37,2013-02-02 13:55:00,
2013-02-02 08:00:00,-8.0,-14.9,30.15,North,0,0.0,0.0,71,0.00,CLR,,0.00,WeatherDisplay:10.37,2013-02-02 14:00:00,
2013-02-02 08:05:00,-8.0,-14.9,30.15,North,0,0.0,0.0,71,0.00,CLR,,0.00,WeatherDisplay:10.37,2013-02-02 14:05:00,
2013-02-02 08:10:00,-8.0,-14.9,30.15,North,0,0.0,0.0,71,0.00,CLR,,0.00,WeatherDisplay:10.37,2013-02-02 14:10:00,
2013-02-02 08:15:00,-8.0,-14.9,30.15,North,0,0.0,0.0,71,0.00,CLR,,0.00,WeatherDisplay:10.37,2013-02-02 14:15:00,
2013-02-02 08:20:00,-8.0,-14.9,30.16,North,0,0.0,0.0,71,0.00,CLR,,0.00,WeatherDisplay:10.37,2013-02-02 14:20:00,
2013-02-02 08:25:00,-7.9,-14.8,30.15,North,0,0.0,0.0,71,0.00,CLR,,0.00,WeatherDisplay:10.37,2013-02-02 14:25:00,
2013-02-02 08:30:00,-7.8,-14.4,30.15,North,0,0.0,0.0,72,0.00,CLR,,0.00,WeatherDisplay:10.37,2013-02-02 14:30:00,
2013-02-02 08:35:00,-7.4,-14.1,30.15,North,0,0.0,0.0,72,0.00,CLR,,0.00,WeatherDisplay:10.37,2013-02-02 14:35:00,
2013-02-02 08:40:00,-6.5,-13.2,30.15,North,0,0.0,0.0,72,0.00,CLR,,0.00,WeatherDisplay:10.37,2013-02-02 14:40:00,
2013-02-02 08:45:00,-6.0,-12.7,30.15,North,0,0.0,0.0,72,0.00,CLR,,0.00,WeatherDisplay:10.37,2013-02-02 14:45:00,
2013-02-02 08:50:00,-5.3,-12.0,30.15,North,0,0.0,0.0,72,0.00,CLR,,0.00,WeatherDisplay:10.37,2013-02-02 14:50:00,
2013-02-02 08:55:00,-4.5,-11.0,30.15,North,0,0.0,0.0,73,0.00,CLR,,0.00,WeatherDisplay:10.37,2013-02-02 14:55:00,
2013-02-02 09:00:00,-3.8,-10.3,30.15,North,360,0.0,0.0,73,0.00,CLR,,0.00,WeatherDisplay:10.37,2013-02-02 15:00:00,
2013-02-02 09:05:00,-3.2,-9.7,30.16,NW,318,0.0,0.0,73,0.00,CLR,,0.00,WeatherDisplay:10.37,2013-02-02 15:05:00,
2013-02-02 09:10:00,-2.2,-8.5,30.16,NW,318,0.0,0.0,74,0.00,CLR,,0.00,WeatherDisplay:10.37,2013-02-02 15:10:00,
2013-02-02 09:15:00,-1.7,-8.2,30.16,NNW,331,0.0,0.0,73,0.00,CLR,,0.00,WeatherDisplay:10.37,2013-02-02 15:15:00,
2013-02-02 09:20:00,-1.0,-7.6,30.16,NNW,334,6.0,6.0,73,0.00,CLR,,0.00,WeatherDisplay:10.37,2013-02-02 15:20:00,
2013-02-02 09:25:00,-0.8,-7.3,30.16,NNW,343,0.0,0.0,73,0.00,CLR,,0.00,WeatherDisplay:10.37,2013-02-02 15:25:00,
2013-02-02 09:30:00,-0.6,-7.5,30.16,NW,308,0.0,0.0,72,0.00,CLR,,0.00,WeatherDisplay:10.37,2013-02-02 15:30:00,
2013-02-02 09:35:00,0.1,-6.8,30.15,NW,312,0.0,0.0,72,0.00,CLR,,0.00,WeatherDisplay:10.37,2013-02-02 15:35:00,
2013-02-02 09:40:00,0.3,-6.6,30.15,NNW,333,0.0,0.0,72,0.00,CLR,,0.00,WeatherDisplay:10.37,2013-02-02 15:40:00,
2013-02-02 09:45:00,0.7,-6.5,30.15,NNW,337,5.0,7.0,71,0.00,CLR,,0.00,WeatherDisplay:10.37,2013-02-02 15:45:00,
2013-02-02 09:50:00,0.9,-6.3,30.15,North,359,0.0,7.0,71,0.00,CLR,,0.00,WeatherDisplay:10.37,2013-02-02 15:50:00,
2013-02-02 09:55:00,1.2,-6.3,30.15,North,356,0.0,0.0,70,0.00,CLR,,0.00,WeatherDisplay:10.37,2013-02-02 15:55:00,
2013-02-02 10:00:00,1.6,-5.9,30.15,North,352,0.0,2.0,70,0.00,CLR,,0.00,WeatherDisplay:10.37,2013-02-02 16:00:00,
2013-02-02 10:05:00,1.9,-5.9,30.15,NNW,343,0.0,0.0,69,0.00,CLR,,0.00,WeatherDisplay:10.37,2013-02-02 16:05:00,
2013-02-02 10:10:00,2.1,-5.7,30.15,NNW,345,0.0,0.0,69,0.00,CLR,,0.00,WeatherDisplay:10.37,2013-02-02 16:10:00,
2013-02-02 10:15:00,2.5,-5.3,30.15,NW,310,0.0,0.0,69,0.00,CLR,,0.00,WeatherDisplay:10.37,2013-02-02 16:15:00,
2013-02-02 10:20:00,2.9,-4.9,30.15,South,186,0.0,0.0,69,0.00,CLR,,0.00,WeatherDisplay:10.37,2013-02-02 16:20:00,
2013-02-02 10:25:00,3.0,-5.2,30.16,South,174,0.0,0.0,68,0.00,CLR,,0.00,WeatherDisplay:10.37,2013-02-02 16:25:00,
2013-02-02 10:30:00,3.4,-4.8,30.16,SSE,157,0.0,0.0,68,0.00,CLR,,0.00,WeatherDisplay:10.37,2013-02-02 16:30:00,
2013-02-02 10:35:00,3.6,-4.9,30.16,ESE,123,0.0,0.0,67,0.00,CLR,,0.00,WeatherDisplay:10.37,2013-02-02 16:35:00,
2013-02-02 10:40:00,3.9,-4.9,30.15,ESE,106,0.0,0.0,66,0.00,CLR,,0.00,WeatherDisplay:10.37,2013-02-02 16:40:00,
2013-02-02 10:45:00,4.3,-4.6,30.15,SE,133,0.0,0.0,66,0.00,CLR,,0.00,WeatherDisplay:10.37,2013-02-02 16:45:00,
2013-02-02 10:50:00,4.6,-4.6,30.15,SE,143,0.0,0.0,65,0.00,CLR,,0.00,WeatherDisplay:10.37,2013-02-02 16:50:00,
2013-02-02 10:55:00,4.8,-4.4,30.16,SE,139,0.0,0.0,65,0.00,CLR,,0.00,WeatherDisplay:10.37,2013-02-02 16:55:00,
2013-02-02 11:00:00,5.2,-4.0,30.15,SSE,160,0.0,0.0,65,0.00,CLR,,0.00,WeatherDisplay:10.37,2013-02-02 17:00:00,
2013-02-02 11:05:00,5.5,-3.7,30.16,South,184,0.0,0.0,65,0.00,CLR,,0.00,WeatherDisplay:10.37,2013-02-02 17:05:00,
2013-02-02 11:10:00,5.7,-3.8,30.15,South,175,0.0,0.0,64,0.00,CLR,,0.00,WeatherDisplay:10.37,2013-02-02 17:10:00,
2013-02-02 11:15:00,5.9,-3.7,30.15,South,171,0.0,0.0,64,0.00,CLR,,0.00,WeatherDisplay:10.37,2013-02-02 17:15:00,
2013-02-02 11:20:00,5.7,-4.2,30.15,South,180,0.0,0.0,63,0.00,CLR,,0.00,WeatherDisplay:10.37,2013-02-02 17:20:00,
2013-02-02 11:25:00,5.9,-4.0,30.15,SSE,159,0.0,0.0,63,0.00,CLR,,0.00,WeatherDisplay:10.37,2013-02-02 17:25:00,
2013-02-02 11:30:00,6.4,-3.5,30.15,South,186,8.0,8.0,63,0.00,CLR,,0.00,WeatherDisplay:10.37,2013-02-02 17:30:00,
2013-02-02 11:35:00,7.4,-2.6,30.15,SSW,196,0.0,8.0,63,0.00,CLR,,0.00,WeatherDisplay:10.37,2013-02-02 17:35:00,
2013-02-02 11:40:00,7.9,-2.1,30.15,South,183,1.0,7.0,63,0.00,CLR,,0.00,WeatherDisplay:10.37,2013-02-02 17:40:00,
2013-02-02 11:45:00,8.4,-1.9,30.14,South,179,0.0,0.0,62,0.00,CLR,,0.00,WeatherDisplay:10.37,2013-02-02 17:45:00,
2013-02-02 11:50:00,8.4,-2.3,30.14,South,180,2.0,3.0,61,0.00,CLR,,0.00,WeatherDisplay:10.37,2013-02-02 17:50:00,
2013-02-02 11:55:00,8.8,-1.9,30.14,South,180,0.0,0.0,61,0.00,CLR,,0.00,WeatherDisplay:10.37,2013-02-02 17:55:00,
2013-02-02 12:00:00,8.8,-1.9,30.13,SSW,195,0.0,0.0,61,0.00,CLR,,0.00,WeatherDisplay:10.37,2013-02-02 18:00:00,
2013-02-02 12:05:00,9.0,-2.5,30.13,SSW,210,0.0,0.0,59,0.00,CLR,,0.00,WeatherDisplay:10.37,2013-02-02 18:05:00,
2013-02-02 12:10:00,8.8,-2.6,30.13,SW,215,0.0,0.0,59,0.00,CLR,,0.00,WeatherDisplay:10.37,2013-02-02 18:10:00,
2013-02-02 12:15:00,9.1,-2.3,30.13,SSW,199,0.0,0.0,59,0.00,CLR,,0.00,WeatherDisplay:10.37,2013-02-02 18:15:00,
2013-02-02 12:20:00,9.1,-2.3,30.12,SSE,163,5.0,7.0,59,0.00,CLR,,0.00,WeatherDisplay:10.37,2013-02-02 18:20:00,
2013-02-02 12:25:00,9.3,-2.1,30.12,SSE,157,1.0,1.0,59,0.00,CLR,,0.00,WeatherDisplay:10.37,2013-02-02 18:25:00,
2013-02-02 12:30:00,9.4,-2.0,30.12,SSE,148,0.0,1.0,59,0.00,CLR,,0.00,WeatherDisplay:10.37,2013-02-02 18:30:00,
2013-02-02 12:35:00,9.7,-1.8,30.11,SE,132,1.0,7.0,59,0.00,CLR,,0.00,WeatherDisplay:10.37,2013-02-02 18:35:00,
2013-02-02 12:40:00,10.2,-1.3,30.11,ESE,118,1.0,7.0,59,0.00,CLR,,0.00,WeatherDisplay:10.37,2013-02-02 18:40:00,
2013-02-02 12:45:00,10.7,-1.2,30.11,ESE,116,0.0,0.0,58,0.00,CLR,,0.00,WeatherDisplay:10.37,2013-02-02 18:45:00,
2013-02-02 12:50:00,11.2,-0.7,30.11,SE,138,2.0,3.0,58,0.00,CLR,,0.00,WeatherDisplay:10.37,2013-02-02 18:50:00,
2013-02-02 12:55:00,11.8,-0.5,30.11,South,175,0.0,0.0,57,0.00,CLR,,0.00,WeatherDisplay:10.37,2013-02-02 18:55:00,
2013-02-02 13:00:00,12.4,0.0,30.10,SW,214,0.0,0.0,57,0.00,CLR,,0.00,WeatherDisplay:10.37,2013-02-02 19:00:00,
2013-02-02 13:05:00,12.6,-0.2,30.09,SW,229,5.0,5.0,56,0.00,CLR,,0.00,WeatherDisplay:10.37,2013-02-02 19:05:00,
2013-02-02 13:10:00,12.4,-0.7,30.09,WSW,243,0.0,0.0,55,0.00,CLR,,0.00,WeatherDisplay:10.37,2013-02-02 19:10:00,
2013-02-02 13:15:00,12.7,-0.4,30.09,SW,235,0.0,0.0,55,0.00,CLR,,0.00,WeatherDisplay:10.37,2013-02-02 19:15:00,
2013-02-02 13:20:00,12.9,-0.2,30.09,SW,221,0.0,1.0,55,0.00,CLR,,0.00,WeatherDisplay:10.37,2013-02-02 19:20:00,
2013-02-02 13:25:00,12.8,-0.3,30.09,SW,220,6.0,6.0,55,0.00,CLR,,0.00,WeatherDisplay:10.37,2013-02-02 19:25:00,
2013-02-02 13:30:00,13.3,0.1,30.09,SSW,211,0.0,3.0,55,0.00,CLR,,0.00,WeatherDisplay:10.37,2013-02-02 19:30:00,
2013-02-02 13:35:00,13.3,0.1,30.09,SW,219,0.0,2.0,55,0.00,CLR,,0.00,WeatherDisplay:10.37,2013-02-02 19:35:00,
2013-02-02 13:40:00,13.8,0.6,30.09,SW,232,0.0,0.0,55,0.00,CLR,,0.00,WeatherDisplay:10.37,2013-02-02 19:40:00,
2013-02-02 13:45:00,13.3,-0.7,30.08,WSW,249,6.0,7.0,53,0.00,CLR,,0.00,WeatherDisplay:10.37,2013-02-02 19:45:00,
2013-02-02 13:50:00,13.1,-0.9,30.08,West,262,0.0,3.0,53,0.00,CLR,,0.00,WeatherDisplay:10.37,2013-02-02 19:50:00,
2013-02-02 13:55:00,12.7,-1.2,30.09,WSW,258,1.0,5.0,53,0.00,CLR,,0.00,WeatherDisplay:10.37,2013-02-02 19:55:00,
2013-02-02 14:00:00,12.7,-1.2,30.09,WSW,254,0.0,0.0,53,0.00,CLR,,0.00,WeatherDisplay:10.37,2013-02-02 20:00:00,
2013-02-02 14:05:00,12.3,-1.6,30.09,West,272,0.0,0.0,53,0.00,CLR,,0.00,WeatherDisplay:10.37,2013-02-02 20:05:00,
2013-02-02 14:10:00,12.0,-1.9,30.07,WSW,256,0.0,0.0,53,0.00,CLR,,0.00,WeatherDisplay:10.37,2013-02-02 20:10:00,
2013-02-02 14:15:00,12.1,-1.4,30.06,SW,214,0.0,0.0,54,0.00,CLR,,0.00,WeatherDisplay:10.37,2013-02-02 20:15:00,
2013-02-02 14:20:00,12.2,-1.3,30.06,South,189,0.0,0.0,54,0.00,CLR,,0.00,WeatherDisplay:10.37,2013-02-02 20:20:00,
2013-02-02 14:25:00,12.5,-1.0,30.05,South,176,0.0,0.0,54,0.00,CLR,,0.00,WeatherDisplay:10.37,2013-02-02 20:25:00,
2013-02-02 14:30:00,12.7,-0.8,30.05,South,170,1.0,7.0,54,0.00,CLR,,0.00,WeatherDisplay:10.37,2013-02-02 20:30:00,
2013-02-02 14:35:00,12.7,-0.8,30.05,SSW,192,0.0,7.0,54,0.00,CLR,,0.00,WeatherDisplay:10.37,2013-02-02 20:35:00,
2013-02-02 14:40:00,12.7,-0.8,30.05,SSW,201,0.0,0.0,54,0.00,CLR,,0.00,WeatherDisplay:10.37,2013-02-02 20:40:00,
2013-02-02 14:45:00,12.6,-1.0,30.05,South,182,8.0,9.0,54,0.00,CLR,,0.00,WeatherDisplay:10.37,2013-02-02 20:45:00,
2013-02-02 14:50:00,12.4,-1.1,30.05,South,177,0.0,0.0,54,0.00,CLR,,0.00,WeatherDisplay:10.37,2013-02-02 20:50:00,
2013-02-02 14:55:00,12.7,-0.4,30.05,South,189,0.0,0.0,55,0.00,CLR,,0.00,WeatherDisplay:10.37,2013-02-02 20:55:00,
2013-02-02 15:00:00,12.7,-0.4,30.05,SSW,194,0.0,0.0,55,0.00,CLR,,0.00,WeatherDisplay:10.37,2013-02-02 21:00:00,
2013-02-02 15:05:00,13.0,-0.1,30.05,South,185,0.0,0.0,55,0.00,CLR,,0.00,WeatherDisplay:10.37,2013-02-02 21:05:00,
2013-02-02 15:10:00,12.9,-0.6,30.04,SSW,192,0.0,0.0,54,0.00,CLR,,0.00,WeatherDisplay:10.37,2013-02-02 21:10:00,
2013-02-02 15:15:00,12.7,-0.8,30.04,South,191,0.0,0.0,54,0.00,CLR,,0.00,WeatherDisplay:10.37,2013-02-02 21:15:00,
2013-02-02 15:20:00,12.7,-0.4,30.05,South,182,0.0,0.0,55,0.00,CLR,,0.00,WeatherDisplay:10.37,2013-02-02 21:20:00,
2013-02-02 15:25:00,12.4,-1.1,30.04,South,183,0.0,0.0,54,0.00,CLR,,0.00,WeatherDisplay:10.37,2013-02-02 21:25:00,
2013-02-02 15:30:00,12.0,-1.5,30.04,South,186,0.0,0.0,54,0.00,CLR,,0.00,WeatherDisplay:10.37,2013-02-02 21:30:00,
2013-02-02 15:35:00,11.9,-1.6,30.04,SSW,201,0.0,0.0,54,0.00,CLR,,0.00,WeatherDisplay:10.37,2013-02-02 21:35:00,
2013-02-02 15:40:00,11.7,-1.4,30.04,SW,218,0.0,0.0,55,0.00,CLR,,0.00,WeatherDisplay:10.37,2013-02-02 21:40:00,
2013-02-02 15:45:00,11.3,-2.1,30.04,SW,225,0.0,0.0,54,0.00,CLR,,0.00,WeatherDisplay:10.37,2013-02-02 21:45:00,
2013-02-02 15:50:00,11.1,-1.9,30.04,SW,236,0.0,0.0,55,0.00,CLR,,0.00,WeatherDisplay:10.37,2013-02-02 21:50:00,
2013-02-02 15:55:00,10.9,-2.1,30.04,SW,232,2.0,5.0,55,0.00,CLR,,0.00,WeatherDisplay:10.37,2013-02-02 21:55:00,
2013-02-02 16:00:00,11.1,-1.9,30.04,SW,220,0.0,0.0,55,0.00,CLR,,0.00,WeatherDisplay:10.37,2013-02-02 22:00:00,
2013-02-02 16:05:00,11.3,-1.8,30.04,SSW,205,0.0,0.0,55,0.00,CLR,,0.00,WeatherDisplay:10.37,2013-02-02 22:05:00,
2013-02-02 16:10:00,11.3,-1.4,30.04,SSW,213,0.0,0.0,56,0.00,CLR,,0.00,WeatherDisplay:10.37,2013-02-02 22:10:00,
2013-02-02 16:15:00,11.5,-1.2,30.04,SSW,206,0.0,0.0,56,0.00,CLR,,0.00,WeatherDisplay:10.37,2013-02-02 22:15:00,
2013-02-02 16:20:00,11.3,-1.4,30.04,SSW,198,0.0,0.0,56,0.00,CLR,,0.00,WeatherDisplay:10.37,2013-02-02 22:20:00,
2013-02-02 16:25:00,11.1,-1.5,30.04,South,191,0.0,0.0,56,0.00,CLR,,0.00,WeatherDisplay:10.37,2013-02-02 22:25:00,
2013-02-02 16:30:00,11.1,-1.5,30.04,South,187,0.0,0.0,56,0.00,CLR,,0.00,WeatherDisplay:10.37,2013-02-02 22:30:00,
2013-02-02 16:35:00,11.0,-1.6,30.03,SSW,199,0.0,0.0,56,0.00,CLR,,0.00,WeatherDisplay:10.37,2013-02-02 22:35:00,
2013-02-02 16:40:00,11.1,-1.2,30.03,SSW,192,0.0,0.0,57,0.00,CLR,,0.00,WeatherDisplay:10.37,2013-02-02 22:40:00,
2013-02-02 16:45:00,10.8,-1.5,30.03,South,169,0.0,0.0,57,0.00,CLR,,0.00,WeatherDisplay:10.37,2013-02-02 22:45:00,
2013-02-02 16:50:00,10.6,-2.0,30.03,SSE,158,0.0,0.0,56,0.00,CLR,,0.00,WeatherDisplay:10.37,2013-02-02 22:50:00,
2013-02-02 16:55:00,10.2,-2.0,30.03,SSE,158,0.0,0.0,57,0.00,CLR,,0.00,WeatherDisplay:10.37,2013-02-02 22:55:00,
2013-02-02 17:00:00,10.0,-2.3,30.03,SSE,158,0.0,0.0,57,0.00,CLR,,0.00,WeatherDisplay:10.37,2013-02-02 23:00:00,
2013-02-02 17:05:00,9.4,-2.8,30.03,SSE,158,0.0,0.0,57,0.00,CLR,,0.00,WeatherDisplay:10.37,2013-02-02 23:05:00,
2013-02-02 17:10:00,9.0,-3.2,30.03,SSE,158,0.0,0.0,57,0.00,CLR,,0.00,WeatherDisplay:10.37,2013-02-02 23:10:00,
2013-02-02 17:15:00,8.6,-3.6,30.03,SSE,158,0.0,0.0,57,0.00,CLR,,0.00,WeatherDisplay:10.37,2013-02-02 23:15:00,
2013-02-02 17:20:00,8.4,-3.3,30.03,SSE,158,0.0,0.0,58,0.00,CLR,,0.00,WeatherDisplay:10.37,2013-02-02 23:20:00,
2013-02-02 17:25:00,8.4,-3.3,30.03,SSE,158,0.0,0.0,58,0.00,CLR,,0.00,WeatherDisplay:10.37,2013-02-02 23:25:00,
2013-02-02 17:30:00,8.4,-3.3,30.03,SSE,158,0.0,0.0,58,0.00,CLR,,0.00,WeatherDisplay:10.37,2013-02-02 23:30:00,
2013-02-02 17:35:00,8.4,-3.0,30.02,SSE,158,0.0,0.0,59,0.00,CLR,,0.00,WeatherDisplay:10.37,2013-02-02 23:35:00,
2013-02-02 17:40:00,8.4,-3.0,30.02,SSE,158,0.0,0.0,59,0.00,CLR,,0.00,WeatherDisplay:10.37,2013-02-02 23:40:00,
2013-02-02 17:45:00,8.4,-3.0,30.01,SSE,158,0.0,0.0,59,0.00,CLR,,0.00,WeatherDisplay:10.37,2013-02-02 23:45:00,
2013-02-02 17:50:00,8.3,-2.8,30.01,SE,145,0.0,0.0,60,0.00,CLR,,0.00,WeatherDisplay:10.37,2013-02-02 23:50:00,
2013-02-02 17:55:00,8.2,-2.8,30.01,ESE,123,0.0,0.0,60,0.00,CLR,,0.00,WeatherDisplay:10.37,2013-02-02 23:55:00,
2013-02-02 18:00:00,8.2,-2.5,30.01,SE,125,0.0,0.0,61,0.00,CLR,,0.00,WeatherDisplay:10.37,2013-02-03 00:00:00,
2013-02-02 18:05:00,8.2,-2.5,30.01,SE,125,0.0,0.0,61,0.00,CLR,,0.00,WeatherDisplay:10.37,2013-02-03 00:05:00,
2013-02-02 18:10:00,8.2,-2.5,30.01,SE,125,0.0,0.0,61,0.00,CLR,,0.00,WeatherDisplay:10.37,2013-02-03 00:10:00,
2013-02-02 18:15:00,8.2,-2.5,30.01,SE,135,0.0,0.0,61,0.00,CLR,,0.00,WeatherDisplay:10.37,2013-02-03 00:15:00,
2013-02-02 18:20:00,8.2,-2.1,30.01,SSE,153,0.0,0.0,62,0.00,CLR,,0.00,WeatherDisplay:10.37,2013-02-03 00:20:00,
2013-02-02 18:25:00,8.2,-1.8,30.01,South,176,0.0,0.0,63,0.00,CLR,,0.00,WeatherDisplay:10.37,2013-02-03 00:25:00,
2013-02-02 18:30:00,8.1,-1.9,30.01,South,177,0.0,0.0,63,0.00,CLR,,0.00,WeatherDisplay:10.37,2013-02-03 00:30:00,
2013-02-02 18:35:00,8.2,-1.8,30.01,SSE,165,0.0,0.0,63,0.00,CLR,,0.00,WeatherDisplay:10.37,2013-02-03 00:35:00,
2013-02-02 18:40:00,8.1,-1.9,30.01,SSE,158,0.0,0.0,63,0.00,CLR,,0.00,WeatherDisplay:10.37,2013-02-03 00:40:00,
2013-02-02 18:45:00,8.1,-1.6,30.00,SSE,158,0.0,0.0,64,0.00,CLR,,0.00,WeatherDisplay:10.37,2013-02-03 00:45:00,
2013-02-02 18:50:00,8.1,-1.3,30.00,SSE,158,0.0,0.0,65,0.00,CLR,,0.00,WeatherDisplay:10.37,2013-02-03 00:50:00,
2013-02-02 18:55:00,8.1,-1.3,30.00,SSE,158,0.0,0.0,65,0.00,CLR,,0.00,WeatherDisplay:10.37,2013-02-03 00:55:00,
2013-02-02 19:00:00,7.9,-1.4,30.00,SSE,158,0.0,0.0,65,0.00,CLR,,0.00,WeatherDisplay:10.37,2013-02-03 01:00:00,
2013-02-02 19:05:00,7.9,-1.1,29.99,SSE,158,0.0,0.0,66,0.00,CLR,,0.00,WeatherDisplay:10.37,2013-02-03 01:05:00,
2013-02-02 19:10:00,7.9,-1.1,29.99,SSE,158,0.0,0.0,66,0.00,CLR,,0.00,WeatherDisplay:10.37,2013-02-03 01:10:00,
2013-02-02 19:15:00,7.9,-1.1,29.99,SSE,158,0.0,0.0,66,0.00,CLR,,0.00,WeatherDisplay:10.37,2013-02-03 01:15:00,
2013-02-02 19:20:00,7.9,-0.8,29.99,SSE,158,0.0,0.0,67,0.00,CLR,,0.00,WeatherDisplay:10.37,2013-02-03 01:20:00,
2013-02-02 19:25:00,7.9,-0.8,29.99,SSE,158,0.0,0.0,67,0.00,CLR,,0.00,WeatherDisplay:10.37,2013-02-03 01:25:00,
2013-02-02 19:30:00,7.9,-0.8,30.00,SSE,158,0.0,0.0,67,0.00,CLR,,0.00,WeatherDisplay:10.37,2013-02-03 01:30:00,
2013-02-02 19:35:00,7.9,-0.5,30.00,SSE,158,0.0,0.0,68,0.00,CLR,,0.00,WeatherDisplay:10.37,2013-02-03 01:35:00,
2013-02-02 19:40:00,7.9,-0.5,30.00,SSE,158,0.0,0.0,68,0.00,CLR,,0.00,WeatherDisplay:10.37,2013-02-03 01:40:00,
2013-02-02 19:45:00,7.9,-0.5,30.00,SSE,158,0.0,0.0,68,0.00,CLR,,0.00,WeatherDisplay:10.37,2013-02-03 01:45:00,
2013-02-02 19:50:00,7.9,-0.5,29.99,SSE,158,0.0,0.0,68,0.00,CLR,,0.00,WeatherDisplay:10.37,2013-02-03 01:50:00,
2013-02-02 19:55:00,7.9,-0.5,29.99,SSE,158,0.0,0.0,68,0.00,CLR,,0.00,WeatherDisplay:10.37,2013-02-03 01:55:00,
2013-02-02 20:00:00,7.9,-0.5,29.99,SSE,158,0.0,0.0,68,0.00,CLR,,0.00,WeatherDisplay:10.37,2013-02-03 02:00:00,
2013-02-02 20:05:00,7.9,-0.5,29.99,SSE,158,0.0,0.0,68,0.00,CLR,,0.00,WeatherDisplay:10.37,2013-02-03 02:05:00,
2013-02-02 20:10:00,7.9,-0.2,29.98,SSE,158,0.0,0.0,69,0.00,CLR,,0.00,WeatherDisplay:10.37,2013-02-03 02:10:00,
2013-02-02 20:15:00,7.7,-0.4,29.98,SSE,158,0.0,0.0,69,0.00,CLR,,0.00,WeatherDisplay:10.37,2013-02-03 02:15:00,
2013-02-02 20:20:00,7.7,-0.4,29.98,SSE,158,0.0,0.0,69,0.00,CLR,,0.00,WeatherDisplay:10.37,2013-02-03 02:20:00,
2013-02-02 20:25:00,7.7,-0.4,29.98,SSE,158,0.0,0.0,69,0.00,CLR,,0.00,WeatherDisplay:10.37,2013-02-03 02:25:00,
2013-02-02 20:30:00,7.7,-0.4,29.98,SSE,158,0.0,0.0,69,0.00,CLR,,0.00,WeatherDisplay:10.37,2013-02-03 02:30:00,
2013-02-02 20:35:00,7.8,-0.3,29.98,SSE,158,0.0,0.0,69,0.00,CLR,,0.00,WeatherDisplay:10.37,2013-02-03 02:35:00,
2013-02-02 20:40:00,7.9,0.1,29.98,SSE,158,0.0,0.0,70,0.00,CLR,,0.00,WeatherDisplay:10.37,2013-02-03 02:40:00,
2013-02-02 20:45:00,7.9,0.1,29.98,SSE,158,0.0,0.0,70,0.00,CLR,,0.00,WeatherDisplay:10.37,2013-02-03 02:45:00,
2013-02-02 20:50:00,7.9,0.1,29.98,SSE,158,0.0,0.0,70,0.00,CLR,,0.00,WeatherDisplay:10.37,2013-02-03 02:50:00,
2013-02-02 20:55:00,7.9,0.1,29.98,SSE,158,0.0,0.0,70,0.00,CLR,,0.00,WeatherDisplay:10.37,2013-02-03 02:55:00,
2013-02-02 21:00:00,7.9,0.1,29.98,SSE,158,0.0,0.0,70,0.00,CLR,,0.00,WeatherDisplay:10.37,2013-02-03 03:00:00,
2013-02-02 21:05:00,7.9,0.1,29.97,SSE,158,0.0,0.0,70,0.00,CLR,,0.00,WeatherDisplay:10.37,2013-02-03 03:05:00,
2013-02-02 21:10:00,7.9,0.1,29.98,SSE,158,0.0,0.0,70,0.00,CLR,,0.00,WeatherDisplay:10.37,2013-02-03 03:10:00,
2013-02-02 21:15:00,7.9,0.1,29.98,SSE,158,0.0,0.0,70,0.00,CLR,,0.00,WeatherDisplay:10.37,2013-02-03 03:15:00,
2013-02-02 21:20:00,7.9,0.1,29.98,SSE,158,0.0,0.0,70,0.00,CLR,,0.00,WeatherDisplay:10.37,2013-02-03 03:20:00,
2013-02-02 21:25:00,7.9,0.4,29.98,SSE,158,0.0,0.0,71,0.00,CLR,,0.00,WeatherDisplay:10.37,2013-02-03 03:25:00,
2013-02-02 21:30:00,7.9,0.5,29.98,SSE,158,0.0,0.0,71,0.00,CLR,,0.00,WeatherDisplay:10.37,2013-02-03 03:30:00,
2013-02-02 21:35:00,7.9,0.4,29.98,SSE,158,0.0,0.0,71,0.00,CLR,,0.00,WeatherDisplay:10.37,2013-02-03 03:35:00,
2013-02-02 21:40:00,8.1,0.6,29.98,SSE,158,0.0,0.0,71,0.00,CLR,,0.00,WeatherDisplay:10.37,2013-02-03 03:40:00,
2013-02-02 21:45:00,8.1,0.6,29.98,SSE,158,0.0,0.0,71,0.00,CLR,,0.00,WeatherDisplay:10.37,2013-02-03 03:45:00,
2013-02-02 21:50:00,8.1,0.6,29.97,SSE,158,0.0,0.0,71,0.00,CLR,,0.00,WeatherDisplay:10.37,2013-02-03 03:50:00,
2013-02-02 21:55:00,8.2,0.8,29.97,SSE,158,0.0,0.0,71,0.00,CLR,,0.00,WeatherDisplay:10.37,2013-02-03 03:55:00,
2013-02-02 22:00:00,8.2,0.8,29.97,SSE,158,0.0,0.0,71,0.00,CLR,,0.00,WeatherDisplay:10.37,2013-02-03 04:00:00,
2013-02-02 22:05:00,8.1,0.6,29.97,SSE,158,0.0,0.0,71,0.00,CLR,,0.00,WeatherDisplay:10.37,2013-02-03 04:05:00,
2013-02-02 22:10:00,8.2,0.8,29.97,SSE,158,0.0,0.0,71,0.00,CLR,,0.00,WeatherDisplay:10.37,2013-02-03 04:10:00,
2013-02-02 22:15:00,8.2,0.7,29.97,SSE,158,0.0,0.0,71,0.00,CLR,,0.00,WeatherDisplay:10.37,2013-02-03 04:15:00,
2013-02-02 22:20:00,8.1,0.6,29.97,SSE,158,0.0,0.0,71,0.00,CLR,,0.00,WeatherDisplay:10.37,2013-02-03 04:20:00,
2013-02-02 22:25:00,8.1,0.6,29.97,SSE,158,0.0,0.0,71,0.00,CLR,,0.00,WeatherDisplay:10.37,2013-02-03 04:25:00,
2013-02-02 22:30:00,8.1,0.6,29.97,SSE,158,0.0,0.0,71,0.00,CLR,,0.00,WeatherDisplay:10.37,2013-02-03 04:30:00,
2013-02-02 22:35:00,8.1,0.6,29.97,SSE,158,0.0,0.0,71,0.00,CLR,,0.00,WeatherDisplay:10.37,2013-02-03 04:35:00,
2013-02-02 22:40:00,8.1,0.6,29.97,SSE,158,0.0,0.0,71,0.00,CLR,,0.00,WeatherDisplay:10.37,2013-02-03 04:40:00,
2013-02-02 22:45:00,8.1,0.6,29.96,SSE,158,0.0,0.0,71,0.00,CLR,,0.00,WeatherDisplay:10.37,2013-02-03 04:45:00,
2013-02-02 22:50:00,8.1,0.9,29.96,SSE,158,0.0,0.0,72,0.00,CLR,,0.00,WeatherDisplay:10.37,2013-02-03 04:50:00,
2013-02-02 22:55:00,8.2,1.1,29.96,SSE,158,0.0,0.0,72,0.00,CLR,,0.00,WeatherDisplay:10.37,2013-02-03 04:55:00,
2013-02-02 23:00:00,8.2,1.1,29.96,SSE,158,0.0,0.0,72,0.00,CLR,,0.00,WeatherDisplay:10.37,2013-02-03 05:00:00,
2013-02-02 23:05:00,8.2,1.1,29.96,SSE,158,0.0,0.0,72,0.00,CLR,,0.00,WeatherDisplay:10.37,2013-02-03 05:05:00,
2013-02-02 23:10:00,8.2,1.1,29.96,SSE,158,0.0,0.0,72,0.00,CLR,,0.00,WeatherDisplay:10.37,2013-02-03 05:10:00,
2013-02-02 23:15:00,8.2,1.1,29.96,South,171,0.0,0.0,72,0.00,CLR,,0.00,WeatherDisplay:10.37,2013-02-03 05:15:00,
2013-02-02 23:20:00,8.4,1.2,29.96,South,184,0.0,0.0,72,0.00,CLR,,0.00,WeatherDisplay:10.37,2013-02-03 05:20:00,
2013-02-02 23:25:00,8.4,1.2,29.96,SSW,195,0.0,0.0,72,0.00,CLR,,0.00,WeatherDisplay:10.37,2013-02-03 05:25:00,
2013-02-02 23:30:00,8.4,1.2,29.96,SSW,202,0.0,0.0,72,0.00,CLR,,0.00,WeatherDisplay:10.37,2013-02-03 05:30:00,
2013-02-02 23:35:00,8.4,1.2,29.96,SSW,203,0.0,0.0,72,0.00,CLR,,0.00,WeatherDisplay:10.37,2013-02-03 05:35:00,
2013-02-02 23:40:00,8.2,1.1,29.96,WSW,241,0.0,0.0,72,0.00,CLR,,0.00,WeatherDisplay:10.37,2013-02-03 05:40:00,
2013-02-02 23:45:00,8.2,1.1,29.96,West,270,0.0,0.0,72,0.00,CLR,,0.00,WeatherDisplay:10.37,2013-02-03 05:45:00,
2013-02-02 23:50:00,8.2,1.4,29.97,West,270,0.0,0.0,73,0.00,CLR,,0.00,WeatherDisplay:10.37,2013-02-03 05:50:00,
2013-02-02 23:55:00,8.2,1.4,29.97,West,280,0.0,0.0,73,0.00,CLR,,0.00,WeatherDisplay:10.37,2013-02-03 05:55:00,